FW6916 Weather Reports


time (UTC)temp
C
wind
direction
speed
KPH
gust
KPH
rain 1hr
cm
rain 24hr
cm
rain mn
cm
humidity
%
barometer
mb
20260504110435 7 282 1.6 6.4 0.00 0.36 0.00 84 1003.5
20260504100424 8 316 1.6 4.8 0.00 0.36 0.00 82 1003.8
20260504090105 8 280 0.0 0.0 0.00 0.36 0.00 82 1003.7
20260504081832 8 269 0.0 1.6 0.00 0.36 0.00 79 1003.6
20260504081333 8 269 0.0 1.6 0.00 0.36 0.00 79 1003.7
20260504080831 8 266 0.0 1.6 0.00 0.36 0.00 79 1003.7
20260504080327 9 319 0.0 1.6 0.00 0.36 0.00 79 1003.7
20260504070306 11 330 0.0 6.4 0.00 0.36 0.00 71 1004.4
20260504060239 12 233 0.0 6.4 0.00 0.36 0.00 70 1005.3
20260504050732 13 319 4.8 9.7 0.00 0.36 0.00 67 1005.6
20260504050448 13 9 6.4 12.9 0.00 0.36 0.00 67 1005.6
20260504045728 13 354 4.8 12.9 0.00 0.36 0.36 67 1005.5
20260504045228 13 12 3.2 9.7 0.00 0.36 0.36 67 1005.5
20260504044727 14 349 3.2 9.7 0.00 0.36 0.36 66 1005.5
20260504044227 14 345 3.2 9.7 0.00 0.36 0.36 66 1005.5
20260504043947 14 335 4.8 9.7 0.00 0.36 0.36 66 1005.5
20260504043227 14 344 4.8 9.7 0.00 0.36 0.36 65 1005.5
20260504042725 14 30 4.8 11.3 0.00 0.36 0.36 65 1005.5
20260504042226 14 3 4.8 11.3 0.00 0.36 0.36 65 1005.5
20260504041721 14 347 4.8 11.3 0.00 0.36 0.36 65 1005.4
20260504041442 14 309 4.8 11.3 0.00 0.36 0.36 65 1005.3
20260504040721 14 5 4.8 11.3 0.00 0.36 0.36 64 1005.3
20260504040444 14 346 4.8 11.3 0.00 0.36 0.36 64 1005.3
20260504035941 15 356 4.8 11.3 0.00 0.36 0.36 63 1005.2
20260504035221 15 319 4.8 11.3 0.00 0.36 0.36 63 1005.2
20260504034953 15 337 3.2 8.0 0.00 0.36 0.36 62 1005.3
20260504034223 15 6 3.2 8.0 0.00 0.36 0.36 62 1005.3
20260504033722 15 3 3.2 6.4 0.00 0.36 0.36 62 1005.4
20260504033226 15 305 3.2 6.4 0.00 0.36 0.36 63 1005.4
20260504032725 15 301 1.6 6.4 0.00 0.36 0.36 63 1005.5
20260504032223 15 319 1.6 4.8 0.00 0.36 0.36 62 1005.6
20260504031724 15 300 1.6 8.0 0.00 0.36 0.36 62 1005.6
20260504031451 15 280 1.6 8.0 0.00 0.36 0.36 62 1005.7
20260504030723 15 293 1.6 4.8 0.00 0.36 0.36 62 1005.7
20260504030711 15 317 1.6 4.8 0.00 0.36 0.36 62 1005.6
20260504025723 15 292 1.6 6.4 0.00 0.36 0.36 62 1005.7
20260504025221 15 291 1.6 6.4 0.00 0.36 0.36 61 1005.7
20260504024719 15 302 1.6 6.4 0.00 0.36 0.36 61 1005.7
20260504024442 15 290 1.6 8.0 0.00 0.36 0.36 61 1005.7
20260504023944 15 321 3.2 8.0 0.00 0.36 0.36 60 1005.6
20260504023217 15 321 3.2 8.0 0.00 0.36 0.36 60 1005.7
20260504022714 15 358 4.8 9.7 0.00 0.36 0.36 59 1005.7
20260504022441 16 23 3.2 9.7 0.00 0.36 0.36 59 1005.7
20260504021943 16 303 3.2 8.0 0.00 0.36 0.36 59 1005.6
20260504021843 16 278 4.8 11.3 0.00 0.36 0.36 59 1005.5
20260504020713 16 10 3.2 11.3 0.00 0.36 0.36 59 1005.5
20260504020213 16 284 3.2 8.0 0.00 0.36 0.36 59 1005.4
20260504015929 16 304 4.8 8.0 0.00 0.36 0.36 59 1005.3
20260504015814 16 310 3.2 8.0 0.00 0.36 0.36 59 1005.4
20260504014710 16 314 3.2 11.3 0.00 0.36 0.36 58 1005.3
20260504014210 16 348 4.8 11.3 0.00 0.36 0.36 58 1005.2
20260504013715 16 352 4.8 14.5 0.00 0.36 0.36 57 1005.3
20260504013213 16 1 4.8 14.5 0.00 0.36 0.36 56 1005.2
20260504012712 17 289 6.4 14.5 0.00 0.36 0.36 56 1005.2
20260504012213 17 348 6.4 14.5 0.00 0.36 0.36 55 1005.1
20260504011707 17 316 6.4 16.1 0.00 0.36 0.36 55 1005.1
20260504011433 17 326 8.0 16.1 0.00 0.36 0.36 54 1005.1
20260504010702 17 335 8.0 16.1 0.00 0.36 0.36 54 1005.1
20260504010446 17 342 9.7 16.1 0.00 0.36 0.36 53 1005.0
20260504005702 18 25 9.7 16.1 0.00 0.36 0.36 52 1005.1
20260504005204 18 327 6.4 14.5 0.00 0.36 0.36 52 1005.1
20260504004705 18 352 4.8 12.9 0.00 0.36 0.36 52 1005.1
20260504004427 18 318 4.8 12.9 0.00 0.36 0.36 51 1005.1
20260504003929 18 329 6.4 12.9 0.00 0.36 0.36 49 1005.0
20260504003204 18 3 4.8 17.7 0.00 0.36 0.36 49 1005.0
20260504002704 19 320 6.4 17.7 0.00 0.36 0.36 48 1005.0
20260504002202 19 321 8.0 17.7 0.00 0.36 0.36 47 1005.0
20260504001702 19 337 9.7 19.3 0.00 0.36 0.36 47 1005.0
20260504001204 20 5 9.7 19.3 0.00 0.36 0.36 46 1005.1
20260504000657 20 333 9.7 19.3 0.00 0.36 0.36 46 1005.1
20260504000157 20 1 11.3 19.3 0.00 0.36 0.36 46 1005.1
20260503235657 20 340 11.3 19.3 0.00 0.36 0.36 45 1005.1
20260503235158 20 4 9.7 24.1 0.00 0.36 0.36 45 1005.0
20260503234657 20 297 11.3 24.1 0.00 0.36 0.36 45 1005.0
20260503234157 20 16 12.9 24.1 0.00 0.36 0.36 45 1005.1
20260503233658 20 330 12.9 24.1 0.00 0.36 0.36 44 1005.1
20260503233158 20 349 12.9 32.2 0.00 0.36 0.36 43 1005.1
20260503232658 20 342 12.9 32.2 0.00 0.36 0.36 43 1005.2
20260503232158 20 4 12.9 32.2 0.00 0.36 0.36 43 1005.1
20260503231657 20 343 14.5 32.2 0.00 0.36 0.36 43 1005.2
20260503231157 20 6 17.7 32.2 0.00 0.36 0.36 42 1005.1
20260503230659 20 6 16.1 33.8 0.00 0.36 0.36 42 1005.2
20260503230422 20 338 16.1 33.8 0.00 0.36 0.36 43 1005.3
20260503225653 20 332 16.1 33.8 0.00 0.36 0.36 43 1005.3
20260503225153 20 352 17.7 33.8 0.00 0.36 0.36 43 1005.4
20260503224653 20 346 19.3 37.0 0.00 0.36 0.36 42 1005.5
20260503224153 20 305 17.7 37.0 0.00 0.36 0.36 42 1005.5
20260503223650 20 10 17.7 32.2 0.00 0.36 0.36 42 1005.4
20260503223153 20 340 19.3 33.8 0.00 0.36 0.36 42 1005.4
20260503222912 20 8 19.3 33.8 0.00 0.36 0.36 43 1005.5
20260503222148 20 347 17.7 33.8 0.00 0.36 0.36 43 1005.6
20260503221650 20 345 17.7 33.8 0.00 0.36 0.36 43 1005.5
20260503221152 20 352 17.7 33.8 0.00 0.36 0.36 42 1005.6
20260503220648 20 338 14.5 30.6 0.00 0.36 0.36 42 1005.6
20260503220146 20 7 12.9 27.4 0.00 0.36 0.36 43 1005.6
20260503215648 20 20 14.5 32.2 0.00 0.36 0.36 42 1005.6
20260503215141 20 321 14.5 32.2 0.00 0.36 0.36 43 1005.7
20260503214642 20 226 12.9 32.2 0.00 0.36 0.36 43 1005.7
20260503214139 20 333 12.9 35.4 0.00 0.36 0.36 42 1005.8
20260503213641 20 0 12.9 35.4 0.00 0.36 0.36 41 1005.8
20260503213140 20 354 12.9 35.4 0.00 0.36 0.36 40 1005.8
20260503212641 20 326 12.9 35.4 0.00 0.36 0.36 41 1005.9
20260503212140 20 347 11.3 30.6 0.00 0.36 0.36 42 1006.0
20260503211639 20 5 9.7 22.5 0.00 0.36 0.36 41 1006.1
20260503211135 20 335 12.9 30.6 0.00 0.36 0.36 42 1006.2
20260503210638 20 341 16.1 35.4 0.00 0.36 0.36 42 1006.3
20260503210137 20 297 12.9 35.4 0.00 0.36 0.36 41 1006.4
20260503205636 20 342 16.1 35.4 0.00 0.36 0.36 47 1006.4
20260503205135 19 15 16.1 35.4 0.00 0.36 0.36 42 1006.6
20260503204853 19 330 12.9 33.8 0.00 0.36 0.36 42 1006.7
20260503204134 19 20 16.1 33.8 0.00 0.36 0.36 43 1006.9
20260503203853 19 347 17.7 41.8 0.00 0.36 0.36 42 1007.0
20260503203618 19 329 20.9 41.8 0.00 0.36 0.36 42 1007.1
20260503202622 18 344 20.9 41.8 0.03 0.36 0.36 41 1007.1
20260503202116 18 350 17.7 49.9 0.03 0.36 0.36 41 1007.3
20260503201835 18 210 19.3 49.9 0.03 0.36 0.36 41 1007.4
20260503201110 18 279 24.1 49.9 0.03 0.36 0.36 42 1007.5
20260503200610 18 336 24.1 49.9 0.03 0.36 0.36 42 1007.6
20260503195613 18 5 20.9 38.6 0.03 0.36 0.36 41 1007.6
20260503195331 18 179 17.7 37.0 0.03 0.36 0.36 41 1007.6
20260503194838 18 293 14.5 38.6 0.03 0.36 0.36 41 1007.7
20260503194111 19 290 14.5 38.6 0.03 0.36 0.36 43 1007.8
20260503193610 18 253 14.5 38.6 0.03 0.36 0.36 44 1007.8
20260503193116 18 318 14.5 38.6 0.03 0.36 0.36 44 1007.9
20260503192610 18 289 12.9 37.0 0.00 0.33 0.33 45 1008.0
20260503192114 17 333 12.9 32.2 0.00 0.33 0.33 47 1008.0
20260503191615 17 283 14.5 32.2 0.00 0.33 0.33 47 1008.2
20260503191113 17 326 12.9 32.2 0.00 0.33 0.33 49 1008.2
20260503190614 17 303 11.3 27.4 0.00 0.33 0.33 53 1008.2
20260503190114 16 330 9.7 27.4 0.00 0.33 0.33 55 1008.2
20260503185603 16 295 9.7 27.4 0.00 0.33 0.33 55 1008.2
20260503185057 16 342 9.7 27.4 0.00 0.33 0.33 58 1008.4
20260503184549 16 253 9.7 27.4 0.00 0.33 0.33 57 1008.5
20260503184533 16 284 9.7 30.6 0.00 0.33 0.33 60 1008.5
20260503183531 15 345 9.7 30.6 0.00 0.33 0.33 62 1008.6
20260503183026 15 2 11.3 30.6 0.00 0.33 0.33 62 1008.7
20260503182521 14 131 12.9 30.6 0.00 0.33 0.33 62 1008.8
20260503182009 14 8 11.3 30.6 0.00 0.33 0.33 65 1009.0
20260503181505 14 301 9.7 30.6 0.00 0.33 0.33 63 1009.3
20260503181003 14 14 11.3 24.1 0.00 0.33 0.33 67 1009.2
20260503180711 13 286 12.9 25.7 0.00 0.33 0.33 66 1009.4
20260503175942 13 280 11.3 25.7 0.00 0.33 0.33 67 1009.8
20260503175437 12 286 9.7 25.7 0.00 0.33 0.33 70 1009.9
20260503174930 12 252 11.3 24.1 0.03 0.33 0.33 75 1010.0
20260503174425 11 293 11.3 24.1 0.05 0.33 0.33 75 1010.1
20260503173917 11 245 11.3 22.5 0.05 0.33 0.33 76 1010.1
20260503173407 10 297 11.3 30.6 0.05 0.33 0.33 77 1010.1
20260503172902 10 259 8.0 30.6 0.08 0.33 0.33 78 1010.2
20260503172616 10 269 6.4 19.3 0.08 0.33 0.33 79 1010.5
20260503171851 10 243 8.0 20.9 0.10 0.33 0.33 78 1011.0
20260503171405 9 252 8.0 20.9 0.10 0.33 0.33 79 1011.1
20260503170853 9 269 6.4 20.9 0.13 0.33 0.33 80 1011.2
20260503170350 9 257 6.4 20.9 0.13 0.33 0.33 80 1011.3
20260503150825 9 302 16.1 53.1 0.08 0.08 0.08 74 1013.8
20260503150545 10 347 17.7 53.1 0.03 0.03 0.03 71 1013.9
20260503140309 10 342 12.9 29.0 0.00 0.00 0.00 63 1013.2
20260503131300 9 316 8.0 22.5 0.00 0.00 0.00 62 1013.9
20260503130252 9 8 8.0 22.5 0.00 0.00 0.00 63 1013.6